Location: Tucson
(32.2217°N, 110.9265°W)
Time: 13:17:10
(UTC-07:00)

A-11 Canister half - Pass Details

Date: 02 November 2021
Orbit: 1516 x 1684 km, 47.2° (Epoch: 04 December)

Event Time Altitude Azimuth Distance (km) Brightness Sun altitude
Rises 18:15:17 0° 283° (WNW) 4,934 13.0 -9.6°
Reaches altitude 10° 18:18:58 10° 293° (WNW) 3,940 12.1 -10.4°
Maximum altitude 18:27:54 34° 355° (N) 2,494 10.1 -12.2°
Enters shadow 18:35:53 12° 55° (NE) 3,661 10.4 -13.9°
